SCP
0 0 0 0 0 0 0 0 0 -0 -0 -0 0 0 0 0 0 0 0 0 0 0
0 0 0 0 0 0 0 0 -0 -0 0 0 0 0 0 0 0 0 0 0 0 0
0 0 0 0 0 0 0 0 -0 0 0 0 0 0 -0 0 0 0 -0 0 0 0
0 0 0 0 0 0 0 0 0 0 0 0 0 0 0 0 -0 0 0 0 0 0
0 0 0 0 0 0 0 0 0 0 0 0 0 0 0 0 0 0 0 0 -0 0
0 0 0 0 -0 0 0 0 0 0 0 0 0 0 0 0 0 0 -0 -0 -0 0
0 -0 0 0 -0 0 -0 -0 -0 0 0 0 0 0 0 0 0 0 0 -0 -0 0
0 -0 0 -0 0 0 -0 -0 -0 0 0 0 0 0 0 0 0 0 -0 -0 -0 -0
-0 -0 0 -0 0 0 0 -0 -0 0 0 0 0 0 0 0 0 0 0 0 0 0
0 0 0 0 0 0 0 0 0 -0 -0 0 0 0 0 0 0 0 0 0 -0 0
0 0 0 0 0 0 0 0 0 0 -0 0 0 0 0 0 0 0 0 0 0 0
0 0 0 0 0 0 0 0 0 0 0 0 0 0 0 0 0 0 0 0 0 -0
0 0 0 0 0 0 0 0 0 0 0 -0 0 -0 0 0 0 0 0 0 0 -0
0 0 0 0 0 0 0 0 0 0 0 0 0 0 0 0 0 0 0 0 0 -0
Wind_Speed_500mb
9 6 5 8 3 1 7 16 16 15 15 16 15 18 20 19 15 14 15 19 22 13
9 5 5 5 2 6 7 16 14 15 14 16 17 18 16 14 15 16 18 18 16 13
9 4 4 5 4 7 11 19 16 14 14 16 18 19 20 16 16 17 20 19 15 7
7 4 4 2 5 6 14 20 18 14 14 15 14 17 17 17 17 18 17 15 12 15
7 4 2 5 7 8 16 19 19 18 14 15 15 14 13 13 13 14 15 17 17 16
8 4 5 7 6 11 18 21 21 19 16 14 14 14 13 13 14 16 17 21 23 25
8 6 10 9 10 14 16 20 23 23 20 16 16 16 15 17 17 20 23 24 26 24
10 8 13 10 12 13 16 17 20 24 22 19 18 19 20 22 18 23 21 19 20 19
14 11 15 14 16 15 19 20 20 25 24 21 18 21 19 19 22 23 27 25 25 24
18 14 15 17 17 18 18 18 20 22 23 26 33 26 23 22 24 26 27 27 33 32
20 16 15 16 17 17 16 16 18 23 28 24 25 24 19 26 23 24 27 26 29 28
23 20 18 15 16 18 18 17 15 15 21 38 30 24 19 24 23 29 36 25 36 36
24 22 19 15 17 18 20 18 16 17 17 35 39 32 20 20 26 36 32 37 40 45
27 24 21 18 19 22 21 20 18 23 25 26 29 28 27 24 33 43 47 49 48 52
Wind_Direction_500mb
196 231 271 282 267 165 221 166 175 175 174 162 159 161 169 170 169 178 186 177 168 186
197 213 262 263 259 181 170 160 169 167 159 162 166 177 186 183 168 161 144 163 173 176
214 201 286 257 164 149 155 164 166 159 147 155 172 185 175 175 166 160 159 174 183 180
204 215 298 191 147 168 157 166 167 159 152 161 157 170 166 164 157 162 163 160 172 165
194 206 275 144 152 153 150 159 168 163 162 162 169 171 159 150 157 162 164 171 159 169
190 203 134 139 121 137 147 154 166 164 167 167 175 171 164 172 169 167 171 164 151 155
188 154 143 118 118 129 138 148 162 174 170 179 192 186 183 165 163 162 157 158 158 150
178 138 148 132 117 127 133 142 159 169 173 176 175 165 162 153 155 152 150 162 159 160
161 151 147 139 130 129 135 140 153 154 163 164 157 143 140 157 157 147 149 155 169 159
162 160 148 150 137 152 138 146 147 155 160 151 143 132 122 118 129 139 148 150 145 146
166 161 152 142 146 145 146 147 164 163 169 167 157 146 134 127 135 147 141 146 137 134
172 166 159 152 146 149 149 140 142 168 201 203 182 155 152 133 149 141 134 131 147 132
175 175 167 162 152 153 146 133 123 115 107 155 172 163 164 164 149 146 146 135 142 138
177 176 176 166 156 150 145 139 127 118 119 145 154 164 162 163 159 154 143 139 135 142
Wind_Speed_850mb
9 6 5 8 3 1 7 16 16 15 15 16 15 18 20 19 15 14 15 19 22 13
9 5 5 5 2 6 7 16 14 15 14 16 17 18 16 14 15 16 18 18 16 13
9 4 4 5 4 7 11 19 16 14 14 16 18 19 20 16 16 17 20 19 15 7
7 4 4 2 5 6 14 20 18 14 14 15 14 17 17 17 17 18 17 15 12 15
7 4 2 5 7 8 16 19 19 18 14 15 15 14 13 13 13 14 15 17 17 16
8 4 5 7 6 11 18 21 21 19 16 14 14 14 13 13 14 16 17 21 23 25
8 6 10 9 10 14 16 20 23 23 20 16 16 16 15 17 17 20 23 24 26 24
10 8 13 10 12 13 16 17 20 24 22 19 18 19 20 22 18 23 21 19 20 19
14 11 15 14 16 15 19 20 20 25 24 21 18 21 19 19 22 23 27 25 25 24
18 14 15 17 17 18 18 18 20 22 23 26 33 26 23 22 24 26 27 27 33 32
20 16 15 16 17 17 16 16 18 23 28 24 25 24 19 26 23 24 27 26 29 28
23 20 18 15 16 18 18 17 15 15 21 38 30 24 19 24 23 29 36 25 36 36
24 22 19 15 17 18 20 18 16 17 17 35 39 32 20 20 26 36 32 37 40 45
27 24 21 18 19 22 21 20 18 23 25 26 29 28 27 24 33 43 47 49 48 52
Wind_Direction_850mb
196 231 271 282 267 165 221 166 175 175 174 162 159 161 169 170 169 178 186 177 168 186
197 213 262 263 259 181 170 160 169 167 159 162 166 177 186 183 168 161 144 163 173 176
214 201 286 257 164 149 155 164 166 159 147 155 172 185 175 175 166 160 159 174 183 180
204 215 298 191 147 168 157 166 167 159 152 161 157 170 166 164 157 162 163 160 172 165
194 206 275 144 152 153 150 159 168 163 162 162 169 171 159 150 157 162 164 171 159 169
190 203 134 139 121 137 147 154 166 164 167 167 175 171 164 172 169 167 171 164 151 155
188 154 143 118 118 129 138 148 162 174 170 179 192 186 183 165 163 162 157 158 158 150
178 138 148 132 117 127 133 142 159 169 173 176 175 165 162 153 155 152 150 162 159 160
161 151 147 139 130 129 135 140 153 154 163 164 157 143 140 157 157 147 149 155 169 159
162 160 148 150 137 152 138 146 147 155 160 151 143 132 122 118 129 139 148 150 145 146
166 161 152 142 146 145 146 147 164 163 169 167 157 146 134 127 135 147 141 146 137 134
172 166 159 152 146 149 149 140 142 168 201 203 182 155 152 133 149 141 134 131 147 132
175 175 167 162 152 153 146 133 123 115 107 155 172 163 164 164 149 146 146 135 142 138
177 176 176 166 156 150 145 139 127 118 119 145 154 164 162 163 159 154 143 139 135 142